Terug naar catalogus

CZ-4 DEB

ActiefPO
NORAD 26273·DEBRIS·🇨🇳 China

Gelanceerd Oct 14, 1999 vanaf Taiyuan Satellite Launch Center

Loading…

Volgende Passages (komende 24 uur)

TLE

VersSource: Space-Track

Epoch: Sep 14, 2026, 09:24 UTC

1 26273U 99057FK  26257.39203344  .00000789  00000-0  10374-3 0  9992
2 26273  98.7244  56.4786 0057778   5.7462  24.4316 14.82444596422612

Volg CZ-4 DEB in realtime met AllMySat

Download on the App Store